Weather History for KPOU - November, 2013

Change the Weather History Date:

Sunday, November 3, 2013

  Actual Average Record
Temperature  
Mean Temperature 39 °F 45 °F  
Max Temperature 47 °F 57 °F 77 °F (2003)
Min Temperature 31 °F 34 °F 21 °F (1980)
Degree Days  
Heating Degree Days 26 20  
Month to date heating degree days 46 58  
Since 1 July heating degree days 534 634  
Cooling Degree Days 0 0  
Month to date cooling degree days 0 0  
Year to date cooling degree days 829 672  
Moisture  
Dew Point 29 °F    
Average Humidity 63    
Maximum Humidity 97    
Minimum Humidity 50    
Precipitation  
Precipitation 0.00 in 0.12 in 1.62 in (1979)
Month to date precipitation 0.27 0.36  
Year to date precipitation 34.42 39.89  
Sea Level Pressure  
Sea Level Pressure 30.14 in    
Wind  
Wind Speed 8 mph (North)    
Max Wind Speed 16 mph    
Max Gust Speed 24 mph    
Visibility 10 miles    
Events      
T = Trace of Precipitation, MM = Missing Value Source: NWS Daily Summary

Daily Weather History Graph

Daily Weather History Graph

Search for Another Location

Airport or City:

Trip Planner

Search our weather history database for the weather conditions in past years. The results will help you decide how hot, cold, wet, or windy it might be!

Date:

Astronomy

Nov. 03, 2013 Rise Set
Actual Time 6:30 AM EST 4:47 PM EST
Civil Twilight 6:01 AM EST 5:16 PM EST
Nautical Twilight 5:28 AM EST 5:49 PM EST
Astronomical Twilight 4:55 AM EST 6:21 PM EST
Moon 6:31 AM EST (11/3) 4:59 PM EST (11/3)
Length of Visible Light 11h 15m
Length of Day
10h 17m
New Moon, 0% of the Moon is Illuminated
Nov 3
New Moon
Nov 10
First Quarter
Nov 17
Full
Nov 25
Last Quarter
Dec 2
New

Hourly Weather History & Observations

Time (EST) Temp. Windchill Dew Point Humidity Pressure Visibility Wind Dir Wind Speed Gust Speed Precip Events Conditions
12:53 AM 39.9 °F - 39.0 °F 97% 29.79 in 10.0 mi Calm Calm - N/A   Mostly Cloudy
1:53 AM 46.9 °F - 42.1 °F 83% 29.83 in 10.0 mi North 9.2 mph - N/A   Overcast
1:53 AM 45.0 °F 39.7 °F 37.9 °F 76% 29.85 in 10.0 mi NNW 10.4 mph - N/A   Overcast
2:53 AM 43.0 °F 37.7 °F 35.1 °F 74% 29.89 in 10.0 mi North 9.2 mph - N/A   Overcast
3:53 AM 43.0 °F 38.2 °F 34.0 °F 71% 29.92 in 10.0 mi North 8.1 mph 16.1 mph N/A   Overcast
4:53 AM 42.1 °F 36.1 °F 33.1 °F 70% 29.96 in 10.0 mi North 10.4 mph - N/A   Overcast
5:53 AM 42.1 °F 35.2 °F 30.9 °F 65% 29.99 in 10.0 mi North 12.7 mph 21.9 mph N/A   Overcast
6:53 AM 39.9 °F 31.4 °F 28.9 °F 65% 30.04 in 10.0 mi North 16.1 mph 24.2 mph N/A   Overcast
7:53 AM 39.9 °F 33.9 °F 28.9 °F 65% 30.09 in 10.0 mi North 9.2 mph - N/A   Overcast
8:53 AM 39.9 °F 33.4 °F 28.0 °F 63% 30.11 in 10.0 mi NNE 10.4 mph - N/A   Overcast
9:53 AM 42.1 °F 34.5 °F 28.9 °F 60% 30.14 in 10.0 mi NNE 15.0 mph - N/A   Overcast
10:53 AM 43.0 °F 36.0 °F 28.0 °F 56% 30.16 in 10.0 mi North 13.8 mph - N/A   Mostly Cloudy
11:53 AM 42.1 °F 37.1 °F 28.0 °F 58% 30.17 in 10.0 mi North 8.1 mph - N/A   Overcast
12:53 PM 46.0 °F 40.2 °F 28.9 °F 51% 30.17 in 10.0 mi NNE 12.7 mph 18.4 mph N/A   Clear
1:53 PM 44.1 °F 40.1 °F 28.9 °F 55% 30.19 in 10.0 mi North 6.9 mph 16.1 mph N/A   Overcast
2:53 PM 42.1 °F 35.7 °F 28.9 °F 60% 30.22 in 10.0 mi North 11.5 mph - N/A   Overcast
3:53 PM 42.1 °F 35.7 °F 28.0 °F 58% 30.25 in 10.0 mi North 11.5 mph - N/A   Overcast
4:53 PM 41.0 °F 34.3 °F 25.0 °F 53% 30.28 in 10.0 mi North 11.5 mph 18.4 mph N/A   Overcast
5:53 PM 37.9 °F 33.5 °F 24.1 °F 57% 30.31 in 10.0 mi NW 5.8 mph - N/A   Scattered Clouds
6:53 PM 36.0 °F 32.1 °F 23.0 °F 59% 30.35 in 10.0 mi WNW 4.6 mph - N/A   Partly Cloudy
7:53 PM 34.0 °F 29.8 °F 23.0 °F 64% 30.36 in 10.0 mi NNW 4.6 mph - N/A   Clear
8:53 PM 34.0 °F 29.8 °F 21.9 °F 61% 30.40 in 10.0 mi North 4.6 mph - N/A   Clear
9:53 PM 34.0 °F 28.8 °F 17.1 °F 50% 30.43 in 10.0 mi North 5.8 mph - N/A   Clear
10:53 PM 33.1 °F 27.7 °F 16.0 °F 50% 30.44 in 10.0 mi North 5.8 mph - N/A   Clear